CW1620 Weather Reports


time (UTC)temp
C
wind
direction
speed
KPH
gust
KPH
rain 1hr
cm
rain 24hr
cm
rain mn
cm
humidity
%
barometer
mb
20260504050017 8 0.0 0.0 0.00 0.00 0.00 67 1015.6
20260504045017 8 0.0 0.0 0.00 0.00 0.00 63 1015.5
20260504044017 8 0.0 0.0 0.00 0.00 0.00 63 1015.6
20260504043018 8 0.0 0.0 0.00 0.00 0.00 64 1015.5
20260504042017 8 0.0 0.0 0.00 0.00 0.00 65 1015.4
20260504041017 8 0.0 0.0 0.00 0.00 0.00 64 1015.3
20260504040018 8 0.0 0.0 0.00 0.00 0.00 65 1015.2
20260504035036 8 0.0 0.0 0.00 0.00 0.00 63 1015.1
20260504034017 8 0.0 0.0 0.00 0.00 0.00 65 1015.0
20260504033016 8 0.0 0.0 0.00 0.00 0.00 64 1014.9
20260504032036 8 0.0 0.0 0.00 0.00 0.00 64 1015.0
20260504031016 8 0.0 0.0 0.00 0.00 0.00 64 1014.8
20260504030016 8 0.0 0.0 0.00 0.00 0.00 64 1014.9
20260504025016 9 0.0 0.0 0.00 0.00 0.00 63 1014.9
20260504024016 9 0.0 0.0 0.00 0.00 0.00 63 1014.7
20260504023036 9 0.0 0.0 0.00 0.00 0.00 63 1014.7
20260504022016 9 0.0 0.0 0.00 0.00 0.00 63 1014.7
20260504021017 9 0.0 0.0 0.00 0.00 0.00 63 1014.8
20260504020016 9 0.0 0.0 0.00 0.00 0.00 64 1014.7
20260504015016 9 0.0 0.0 0.00 0.00 0.00 64 1014.8
20260504014016 10 0.0 0.0 0.00 0.00 0.00 64 1014.7
20260504013016 10 0.0 0.0 0.00 0.00 0.00 61 1014.6
20260504012017 10 0.0 0.0 0.00 0.00 0.00 62 1014.4
20260504011016 10 0.0 0.0 0.00 0.00 0.00 62 1014.4
20260504010016 10 0.0 0.0 0.00 0.00 0.00 60 1014.4
20260504005016 11 0.0 0.0 0.00 0.00 0.00 58 1014.3
20260504004016 11 0.0 0.0 0.00 0.00 0.00 58 1014.2
20260504003016 11 0.0 0.0 0.00 0.00 0.00 56 1014.1
20260504002016 12 0.0 0.0 0.00 0.00 0.00 55 1014.0
20260504001016 12 0.0 0.0 0.00 0.00 0.00 55 1014.0
20260504000038 13 0.0 0.0 0.00 0.00 0.00 52 1013.8
20260503235016 13 0.0 0.0 0.00 0.00 0.00 47 1013.6
20260503234016 13 0.0 0.0 0.00 0.00 0.00 46 1013.5
20260503233015 14 0.0 0.0 0.00 0.00 0.00 45 1013.5
20260503232016 14 0.0 0.0 0.00 0.00 0.00 44 1013.5
20260503231015 15 0.0 0.0 0.00 0.00 0.00 44 1013.5
20260503230016 15 0.0 0.0 0.00 0.00 0.00 44 1013.6
20260503225016 15 0.0 0.0 0.00 0.00 0.00 40 1013.5
20260503224036 15 0.0 0.0 0.00 0.00 0.00 41 1013.5
20260503223016 16 0.0 0.0 0.00 0.00 0.00 38 1013.5
20260503222015 16 0.0 0.0 0.00 0.00 0.00 35 1013.6
20260503221016 16 0.0 0.0 0.00 0.00 0.00 37 1013.5
20260503220016 16 0.0 0.0 0.00 0.00 0.00 38 1013.4
20260503215036 16 0.0 0.0 0.00 0.00 0.00 39 1013.5
20260503214036 16 0.0 0.0 0.00 0.00 0.00 39 1013.4
20260503213018 17 0.0 0.0 0.00 0.00 0.00 36 1013.5
20260503212018 17 0.0 0.0 0.00 0.00 0.00 37 1013.5
20260503211037 17 0.0 0.0 0.00 0.00 0.00 35 1013.4
20260503210018 17 0.0 0.0 0.00 0.00 0.00 34 1013.5
20260503205017 17 0.0 0.0 0.00 0.00 0.00 35 1013.5
20260503204018 18 0.0 0.0 0.00 0.00 0.00 33 1013.6
20260503203019 17 0.0 0.0 0.00 0.00 0.00 34 1013.5
20260503202038 17 0.0 0.0 0.00 0.00 0.00 38 1013.6
20260503201057 17 0.0 0.0 0.00 0.00 0.00 36 1013.7
20260503200017 17 0.0 0.0 0.00 0.00 0.00 36 1013.8
20260503195017 17 0.0 0.0 0.00 0.00 0.00 36 1013.8
20260503194017 16 0.0 1.6 0.00 0.00 0.00 37 1013.9
20260503193037 16 0.0 0.0 0.00 0.00 0.00 38 1014.0
20260503192017 16 0.0 0.0 0.00 0.00 0.00 39 1014.1
20260503191017 16 0.0 0.0 0.00 0.00 0.00 38 1014.2
20260503190037 16 0.0 0.0 0.00 0.00 0.00 38 1014.3
20260503185057 16 0.0 0.0 0.00 0.00 0.00 38 1014.5
20260503184017 16 0.0 0.0 0.00 0.00 0.00 36 1014.6
20260503183017 16 0.0 0.0 0.00 0.00 0.00 39 1014.7
20260503182017 15 0.0 0.0 0.00 0.00 0.00 41 1014.6
20260503181038 15 0.0 0.0 0.00 0.00 0.00 40 1014.7
20260503180017 15 0.0 0.0 0.00 0.00 0.00 37 1014.8
20260503175017 15 0.0 0.0 0.00 0.00 0.00 39 1014.9
20260503174017 15 0.0 0.0 0.00 0.00 0.00 40 1014.9
20260503173017 15 0.0 0.0 0.00 0.00 0.00 39 1015.0
20260503172017 15 0.0 0.0 0.00 0.00 0.00 40 1014.9
20260503171017 15 0.0 0.0 0.00 0.00 0.00 36 1015.0
20260503131017 9 0.0 0.0 0.00 0.00 0.00 59 1015.5
20260503081016 5 0.0 0.0 0.00 0.00 0.00 78 1012.8
20260503072016 6 0.0 0.0 0.00 0.00 0.00 78 1012.5
20260503071016 6 0.0 0.0 0.00 0.00 0.00 78 1012.4